User: anonymous   Login
Location: Unspecified
(0.0000°N, 0.0000°E)
Time: 00:39:22
(UTC+00:00)
Language:

GOES 3 - Orbit

View from above orbital plane
View from above orbital plane
View from above satellite
View from above satellite

Ground track
Ground track

The orbit data is extracted from the following two-line orbital elements,

1 10953U 78062A   17205.50184983 +.00000014 +00000-0 +00000-0 0  9999
2 10953 013.3753 330.7368 0002610 281.6388 262.9969 00.99360661096308
Epoch (UTC): 24 July 2017 12:02:39
Eccentricity: 0.0002610
inclination: 13.3753°
perigee height: 36032 km
apogee height: 36054 km
right ascension of ascending node: 330.7368°
argument of perigee: 281.6388°
revolutions per day: 0.99360661
mean anomaly at epoch: 262.9969°
orbit number at epoch: 9630

The dashed part of the orbit path shows where the satellite is in the earth's shadow,  

DLR